Time,TemperatureF,DewpointF,PressureIn,WindDirection,WindDirectionDegrees,WindSpeedMPH,WindSpeedGustMPH,Humidity,HourlyPrecipIn,Conditions,Clouds,dailyrainin,SolarRadiationWatts/m^2,SoftwareType,DateUTC
2013-03-06 00:32:00,39.8,29.0,30.15,SW,232,0.0,1.0,65,0.00,,,0.00,0,weatherlink.com 1.10,2013-03-05 23:32:00,
2013-03-06 00:47:00,39.7,29.0,30.15,SW,229,0.0,1.0,65,0.00,,,0.00,0,weatherlink.com 1.10,2013-03-05 23:47:00,
2013-03-06 01:02:00,39.6,29.0,30.15,SW,229,0.0,2.0,66,0.00,,,0.00,0,weatherlink.com 1.10,2013-03-06 00:02:00,
2013-03-06 01:17:00,39.5,29.0,30.15,SW,232,0.0,2.0,66,0.00,,,0.00,0,weatherlink.com 1.10,2013-03-06 00:17:00,
2013-03-06 01:32:00,39.4,29.0,30.14,SW,232,0.0,1.0,66,0.00,,,0.00,0,weatherlink.com 1.10,2013-03-06 00:32:00,
2013-03-06 01:47:00,39.3,29.0,30.14,North,360,1.0,3.0,66,0.00,,,0.00,0,weatherlink.com 1.10,2013-03-06 00:47:00,
2013-03-06 02:02:00,39.2,29.0,30.13,SW,232,0.0,2.0,67,0.00,,,0.00,0,weatherlink.com 1.10,2013-03-06 01:02:00,
2013-03-06 02:17:00,39.2,29.0,30.12,SW,233,0.0,1.0,67,0.00,,,0.00,0,weatherlink.com 1.10,2013-03-06 01:17:00,
2013-03-06 02:32:00,39.0,29.0,30.11,SW,231,0.0,1.0,67,0.00,,,0.00,0,weatherlink.com 1.10,2013-03-06 01:32:00,
2013-03-06 02:47:00,38.9,29.0,30.11,SW,232,0.0,0.0,68,0.00,,,0.00,0,weatherlink.com 1.10,2013-03-06 01:47:00,
2013-03-06 03:02:00,38.8,29.0,30.11,SW,230,0.0,0.0,68,0.00,,,0.00,0,weatherlink.com 1.10,2013-03-06 02:02:00,
2013-03-06 03:17:00,38.6,29.0,30.10,North,360,0.0,0.0,69,0.00,,,0.00,0,weatherlink.com 1.10,2013-03-06 02:17:00,
2013-03-06 03:32:00,38.3,29.0,30.10,SW,232,0.0,0.0,70,0.00,,,0.00,0,weatherlink.com 1.10,2013-03-06 02:32:00,
2013-03-06 03:47:00,37.8,29.0,30.10,North,360,0.0,0.0,71,0.00,,,0.00,0,weatherlink.com 1.10,2013-03-06 02:47:00,
2013-03-06 04:02:00,37.4,29.0,30.10,SW,231,0.0,0.0,71,0.00,,,0.00,0,weatherlink.com 1.10,2013-03-06 03:02:00,
2013-03-06 04:17:00,36.7,28.0,30.10,SW,232,0.0,0.0,71,0.00,,,0.00,0,weatherlink.com 1.10,2013-03-06 03:17:00,
2013-03-06 04:32:00,36.1,28.0,30.09,SW,232,0.0,0.0,72,0.00,,,0.00,0,weatherlink.com 1.10,2013-03-06 03:32:00,
2013-03-06 04:48:00,35.5,28.0,30.09,SW,228,0.0,1.0,73,0.00,,,0.00,0,weatherlink.com 1.10,2013-03-06 03:48:00,
2013-03-06 05:03:00,35.2,28.0,30.09,SW,232,0.0,1.0,75,0.00,,,0.00,0,weatherlink.com 1.10,2013-03-06 04:03:00,
2013-03-06 05:18:00,35.1,28.0,30.08,SW,229,0.0,1.0,76,0.00,,,0.00,0,weatherlink.com 1.10,2013-03-06 04:18:00,
2013-03-06 05:33:00,35.3,29.0,30.08,SW,232,0.0,0.0,77,0.00,,,0.00,0,weatherlink.com 1.10,2013-03-06 04:33:00,
2013-03-06 05:48:00,35.6,29.0,30.08,SW,230,0.0,1.0,77,0.00,,,0.00,0,weatherlink.com 1.10,2013-03-06 04:48:00,
2013-03-06 06:03:00,35.4,29.0,30.08,SW,230,0.0,1.0,76,0.00,,,0.00,0,weatherlink.com 1.10,2013-03-06 05:03:00,
2013-03-06 06:18:00,35.1,28.0,30.07,SW,230,0.0,0.0,76,0.00,,,0.00,0,weatherlink.com 1.10,2013-03-06 05:18:00,
2013-03-06 06:33:00,35.0,28.0,30.07,SW,235,0.0,0.0,77,0.00,,,0.00,12,weatherlink.com 1.10,2013-03-06 05:33:00,
2013-03-06 06:48:00,34.8,28.0,30.08,North,360,0.0,0.0,77,0.00,,,0.00,32,weatherlink.com 1.10,2013-03-06 05:48:00,
2013-03-06 07:03:00,35.9,30.0,30.08,SW,230,0.0,0.0,79,0.00,,,0.00,56,weatherlink.com 1.10,2013-03-06 06:03:00,
2013-03-06 07:33:00,37.7,30.0,30.08,SW,231,0.0,0.0,74,0.00,,,0.00,39,weatherlink.com 1.10,2013-03-06 06:33:00,
2013-03-06 07:48:00,38.2,30.0,30.08,SW,232,0.0,1.0,73,0.00,,,0.00,53,weatherlink.com 1.10,2013-03-06 06:48:00,
2013-03-06 08:03:00,38.5,30.0,30.08,SW,230,0.0,0.0,72,0.00,,,0.00,44,weatherlink.com 1.10,2013-03-06 07:03:00,
2013-03-06 08:18:00,38.9,31.0,30.08,SW,230,1.0,2.0,72,0.00,,,0.00,63,weatherlink.com 1.10,2013-03-06 07:18:00,
2013-03-06 08:33:00,39.3,31.0,30.06,SW,229,0.0,2.0,72,0.00,,,0.00,100,weatherlink.com 1.10,2013-03-06 07:33:00,
2013-03-06 08:48:00,40.3,31.0,30.06,SW,236,1.0,2.0,70,0.00,,,0.00,139,weatherlink.com 1.10,2013-03-06 07:48:00,
2013-03-06 09:03:00,41.5,32.0,30.06,NNW,338,3.0,4.0,68,0.00,,,0.00,135,weatherlink.com 1.10,2013-03-06 08:03:00,
2013-03-06 09:18:00,41.8,32.0,30.06,NNW,343,3.0,4.0,67,0.00,,,0.00,209,weatherlink.com 1.10,2013-03-06 08:18:00,
2013-03-06 09:33:00,43.0,32.0,30.05,North,9,0.0,4.0,66,0.00,,,0.00,199,weatherlink.com 1.10,2013-03-06 08:33:00,
2013-03-06 09:48:00,43.4,32.0,30.05,North,355,2.0,5.0,64,0.00,,,0.00,418,weatherlink.com 1.10,2013-03-06 08:48:00,
2013-03-06 10:03:00,44.4,32.0,30.04,NNW,338,0.0,4.0,62,0.00,,,0.00,185,weatherlink.com 1.10,2013-03-06 09:03:00,
2013-03-06 10:18:00,42.8,33.0,30.04,North,5,1.0,4.0,68,0.00,,,0.00,123,weatherlink.com 1.10,2013-03-06 09:18:00,
2013-03-06 10:48:00,42.7,32.0,30.04,North,5,0.0,1.0,66,0.00,,,0.00,109,weatherlink.com 1.10,2013-03-06 09:48:00,
2013-03-06 11:03:00,43.6,33.0,30.03,North,5,2.0,4.0,67,0.00,,,0.00,200,weatherlink.com 1.10,2013-03-06 10:03:00,
2013-03-06 11:18:00,46.3,34.0,30.02,North,360,0.0,5.0,62,0.00,,,0.00,367,weatherlink.com 1.10,2013-03-06 10:18:00,
2013-03-06 11:33:00,49.3,35.0,30.01,North,355,0.0,6.0,58,0.00,,,0.00,378,weatherlink.com 1.10,2013-03-06 10:33:00,
2013-03-06 11:48:00,49.1,34.0,30.01,North,350,0.0,6.0,57,0.00,,,0.00,292,weatherlink.com 1.10,2013-03-06 10:48:00,
2013-03-06 12:04:00,52.1,36.0,30.01,North,349,3.0,3.0,54,0.00,,,0.00,471,weatherlink.com 1.10,2013-03-06 11:04:00,
2013-03-06 12:19:00,50.4,35.0,29.99,North,5,1.0,7.0,56,0.00,,,0.00,253,weatherlink.com 1.10,2013-03-06 11:19:00,
2013-03-06 12:34:00,48.9,35.0,29.99,NW,322,1.0,5.0,60,0.00,,,0.00,320,weatherlink.com 1.10,2013-03-06 11:34:00,
2013-03-06 12:49:00,51.4,36.0,29.98,North,355,1.0,7.0,56,0.00,,,0.00,288,weatherlink.com 1.10,2013-03-06 11:49:00,
2013-03-06 13:19:00,49.7,35.0,29.97,SE,130,0.0,2.0,57,0.00,,,0.00,67,weatherlink.com 1.10,2013-03-06 12:19:00,
2013-03-06 13:34:00,49.6,35.0,29.96,South,186,1.0,4.0,58,0.00,,,0.00,58,weatherlink.com 1.10,2013-03-06 12:34:00,
2013-03-06 13:49:00,49.8,35.0,29.95,NNE,27,0.0,1.0,58,0.00,,,0.00,86,weatherlink.com 1.10,2013-03-06 12:49:00,
2013-03-06 14:04:00,50.3,36.0,29.95,NNE,26,0.0,0.0,58,0.00,,,0.00,169,weatherlink.com 1.10,2013-03-06 13:04:00,
2013-03-06 14:19:00,51.6,37.0,29.95,NNE,28,0.0,1.0,57,0.00,,,0.00,151,weatherlink.com 1.10,2013-03-06 13:19:00,
2013-03-06 14:34:00,51.7,37.0,29.94,NNE,23,2.0,6.0,57,0.00,,,0.00,81,weatherlink.com 1.10,2013-03-06 13:34:00,
2013-03-06 14:49:00,51.5,37.0,29.94,NE,36,1.0,2.0,58,0.00,,,0.00,47,weatherlink.com 1.10,2013-03-06 13:49:00,
2013-03-06 15:04:00,51.4,37.0,29.93,NNE,18,1.0,4.0,58,0.00,,,0.00,65,weatherlink.com 1.10,2013-03-06 14:04:00,
2013-03-06 15:19:00,51.4,38.0,29.92,NNE,19,0.0,1.0,60,0.00,,,0.00,120,weatherlink.com 1.10,2013-03-06 14:19:00,
2013-03-06 15:34:00,51.4,38.0,29.92,NNE,20,0.0,1.0,60,0.00,,,0.00,100,weatherlink.com 1.10,2013-03-06 14:34:00,
2013-03-06 15:49:00,51.3,38.0,29.91,North,10,0.0,3.0,61,0.00,,,0.00,72,weatherlink.com 1.10,2013-03-06 14:49:00,
2013-03-06 16:04:00,51.3,38.0,29.91,North,10,0.0,1.0,61,0.00,,,0.00,37,weatherlink.com 1.10,2013-03-06 15:04:00,
2013-03-06 16:19:00,51.0,38.0,29.90,North,9,0.0,1.0,62,0.00,,,0.00,32,weatherlink.com 1.10,2013-03-06 15:19:00,
2013-03-06 16:34:00,50.6,38.0,29.89,North,9,0.0,1.0,63,0.00,,,0.00,23,weatherlink.com 1.10,2013-03-06 15:34:00,
2013-03-06 16:49:00,50.4,38.0,29.89,North,9,0.0,0.0,63,0.00,,,0.00,16,weatherlink.com 1.10,2013-03-06 15:49:00,
2013-03-06 17:04:00,50.1,38.0,29.88,North,9,1.0,2.0,64,0.00,,,0.00,9,weatherlink.com 1.10,2013-03-06 16:04:00,
2013-03-06 17:19:00,49.8,38.0,29.88,North,9,0.0,0.0,64,0.00,,,0.00,0,weatherlink.com 1.10,2013-03-06 16:19:00,
2013-03-06 17:49:00,49.2,38.0,29.88,North,9,0.0,0.0,66,0.00,,,0.00,0,weatherlink.com 1.10,2013-03-06 16:49:00,
2013-03-06 18:04:00,49.2,39.0,29.88,North,9,0.0,0.0,67,0.00,,,0.00,0,weatherlink.com 1.10,2013-03-06 17:04:00,
2013-03-06 18:19:00,49.3,39.0,29.88,North,9,0.0,0.0,67,0.00,,,0.00,0,weatherlink.com 1.10,2013-03-06 17:19:00,
2013-03-06 18:34:00,49.1,39.0,29.88,North,5,0.0,0.0,68,0.00,,,0.00,0,weatherlink.com 1.10,2013-03-06 17:34:00,
2013-03-06 19:04:00,48.8,39.0,29.87,North,9,0.0,0.0,68,0.00,,,0.00,0,weatherlink.com 1.10,2013-03-06 18:04:00,
2013-03-06 19:49:00,48.7,39.0,29.87,North,9,0.0,0.0,69,0.00,,,0.00,0,weatherlink.com 1.10,2013-03-06 18:49:00,
2013-03-06 20:04:00,48.7,39.0,29.87,North,9,0.0,2.0,69,0.00,,,0.00,0,weatherlink.com 1.10,2013-03-06 19:04:00,
2013-03-06 20:19:00,48.6,39.0,29.86,North,5,0.0,1.0,69,0.00,,,0.00,0,weatherlink.com 1.10,2013-03-06 19:19:00,
2013-03-06 20:34:00,48.6,39.0,29.86,North,9,2.0,4.0,69,0.00,,,0.00,0,weatherlink.com 1.10,2013-03-06 19:34:00,
2013-03-06 20:49:00,48.6,39.0,29.86,NNE,19,0.0,2.0,69,0.00,,,0.00,0,weatherlink.com 1.10,2013-03-06 19:49:00,
2013-03-06 21:04:00,48.5,39.0,29.86,WNW,298,0.0,0.0,69,0.00,,,0.00,0,weatherlink.com 1.10,2013-03-06 20:04:00,
2013-03-06 21:19:00,48.4,39.0,29.86,NW,324,0.0,3.0,70,0.00,,,0.00,0,weatherlink.com 1.10,2013-03-06 20:19:00,
2013-03-06 21:49:00,47.9,39.0,29.86,NW,322,0.0,0.0,70,0.00,,,0.00,0,weatherlink.com 1.10,2013-03-06 20:49:00,
2013-03-06 22:04:00,47.7,39.0,29.85,NW,318,0.0,0.0,71,0.00,,,0.00,0,weatherlink.com 1.10,2013-03-06 21:04:00,
2013-03-06 22:49:00,47.5,39.0,29.84,North,360,0.0,1.0,72,0.00,,,0.00,0,weatherlink.com 1.10,2013-03-06 21:49:00,
2013-03-06 23:19:00,48.4,39.0,29.83,North,5,1.0,5.0,71,0.00,,,0.00,0,weatherlink.com 1.10,2013-03-06 22:19:00,